This is the latest recevied weather packets stored in our database for station/object EA1CUE-WX. If no packets are shown the sender has not sent any weather packets the latest 10 day(s).
| Time | Temp. | Humidity | Pressure | Rain* | Wind** | Luminosity | Snow |
|---|---|---|---|---|---|---|---|
| 1778156026 | 16.67° C | 46% | 1008 hPa | 0 mm | - | - | - |
| 1778155726 | 16.67° C | 46% | 1008 hPa | 0 mm | - | - | - |
| 1778155426 | 16.67° C | 48% | 1008 hPa | 0 mm | - | - | - |
| 1778155126 | 16.67° C | 48% | 1008.1 hPa | 0 mm | - | - | - |
| 1778154826 | 16.11° C | 48% | 1008 hPa | 0 mm | - | - | - |
| 1778154526 | 16.67° C | 48% | 1008.1 hPa | 0 mm | - | - | - |
| 1778154227 | 16.67° C | 47% | 1008.1 hPa | 0 mm | - | - | - |
| 1778153926 | 16.11° C | 47% | 1008.1 hPa | 0 mm | - | - | - |
| 1778153626 | 16.11° C | 46% | 1008.1 hPa | 0 mm | - | - | - |
| 1778153326 | 15.56° C | 41% | 1008 hPa | 0 mm | - | - | - |
| 1778153026 | 15° C | 45% | 1008.1 hPa | 0 mm | - | - | - |
| 1778152726 | 15° C | 46% | 1008.2 hPa | 0 mm | - | - | - |
| 1778152426 | 15° C | 46% | 1008.2 hPa | 0 mm | - | - | - |
| 1778152126 | 15.56° C | 44% | 1008.2 hPa | 0 mm | - | - | - |
| 1778151826 | 15.56° C | 41% | 1008.2 hPa | 0 mm | - | - | - |
| 1778151526 | 15° C | 44% | 1008.2 hPa | 0 mm | - | - | - |
| 1778151226 | 15.56° C | 43% | 1008.3 hPa | 0 mm | - | - | - |
| 1778150027 | 14.44° C | 43% | 1008.4 hPa | 0 mm | - | - | - |
| 1778149726 | 15° C | 38% | 1008.4 hPa | 0 mm | - | - | - |
| 1778149426 | 14.44° C | 32% | 1008.4 hPa | 0 mm | - | - | - |
| 1778149126 | 14.44° C | 35% | 1008.5 hPa | 0 mm | - | - | - |
| 1778148826 | 14.44° C | 20% | 1008.4 hPa | 0 mm | - | - | - |
| 1778148526 | 13.89° C | 25% | 1008.5 hPa | 0 mm | - | - | - |
| 1778148226 | 13.89° C | 22% | 1008.5 hPa | 0 mm | - | - | - |
| 1778147927 | 13.89° C | 23% | 1008.5 hPa | 0 mm | - | - | - |
* Rain latest hour (hover to see other rain measurements)
** Current wind speed in m/s (hover to see current wind gust speed)